Terminal Aerodrome Forecast
Issued by NWS State College, PA

Home | Current Version | Previous Version | Text Only | Print | Product List | Glossary On
Versions: 1 2 3 4 5 6 7 8 9 10 11 12 13 14 15 16 17 18 19 20 21 22 23 24 25 26 27 28 29 30 31 32 33 34 35 36 37 38 39 40 41 42 43 44 45 46 47 48 49 50
000
FTUS41 KCTP 270204 AAC
TAFMDT
TAF AMD
KMDT 270204Z 2702/2724 04007G15KT 5SM -SN OVC020
     FM270500 03008G15KT 4SM -SN OVC015
     FM271000 01010G20KT 5SM -SN OVC025
     FM271700 36012G22KT P6SM BKN035=

USA.gov is the U.S. government's official web portal to all federal, state and local government web resources and services.